Weather History for KCDA - August, 2013

Change the Weather History Date:

Thursday, August 8, 2013

  Actual Average (K1V4) Record (K1V4)
Temperature  
Mean Temperature 70 °F 69 °F  
Max Temperature 77 °F 80 °F 100 °F (1909)
Min Temperature 64 °F 58 °F 38 °F (1903)
Degree Days  
Heating Degree Days 0 1  
Month to date heating degree days 7  
Since 1 June heating degree days 94  
Since 1 July heating degree days 22  
Cooling Degree Days 6 5  
Month to date cooling degree days 40  
Year to date cooling degree days 317  
Since 1 June cooling degree days 299  
Growing Degree Days 20 (Base 50)    
Moisture  
Dew Point 62 °F    
Average Humidity 79    
Maximum Humidity 91    
Minimum Humidity 63    
Precipitation  
Precipitation 0.00 in 0.16 in 1.35 in (1958)
Month to date precipitation 1.28  
Year to date precipitation 22.82  
Sea Level Pressure  
Sea Level Pressure 30.03 in    
Wind  
Wind Speed 6 mph (SSE)    
Max Wind Speed 12 mph    
Max Gust Speed 17 mph    
Visibility 9 miles    
Events Fog , Rain    
T = Trace of Precipitation, MM = Missing Value Source: NWS Daily Summary

Daily Weather History Graph

Daily Weather History Graph

Search for Another Location

Airport or City:

Trip Planner

Search our weather history database for the weather conditions in past years. The results will help you decide how hot, cold, wet, or windy it might be!

Date:

Astronomy

Aug. 08, 2013 Rise Set
Actual Time 5:42 AM EDT 8:03 PM EDT
Civil Twilight 5:10 AM EDT 8:36 PM EDT
Nautical Twilight 4:29 AM EDT 9:16 PM EDT
Astronomical Twilight 3:44 AM EDT 10:01 PM EDT
Moon 7:33 AM EDT (8/8) 8:32 PM EDT (8/8)
Length of Visible Light 15h 25m
Length of Day
14h 20m
Waxing Crescent, 3% of the Moon is Illuminated
Aug 8
Waxing Crescent
Aug 14
First Quarter
Aug 20
Full
Aug 28
Last Quarter
Sep 5
New

Hourly Weather History & Observations

Time (EDT) Temp. Dew Point Humidity Pressure Visibility Wind Dir Wind Speed Gust Speed Precip Events Conditions
12:15 AM 65.8 °F 53.1 °F 63% 30.08 in 10.0 mi South 4.6 mph - N/A   Overcast
12:35 AM 65.5 °F 52.9 °F 64% 30.07 in 10.0 mi South 5.8 mph - N/A   Overcast
12:55 AM 66.2 °F 53.6 °F 64% 30.07 in 10.0 mi South 9.2 mph - N/A   Overcast
1:15 AM 66.2 °F 54.1 °F 65% 30.07 in 10.0 mi South 8.1 mph - N/A   Overcast
1:35 AM 66.0 °F 54.1 °F 65% 30.06 in 10.0 mi South 8.1 mph - N/A   Overcast
1:55 AM 65.8 °F 54.5 °F 67% 30.06 in 10.0 mi South 9.2 mph - N/A   Overcast
2:15 AM 65.7 °F 54.9 °F 68% 30.06 in 10.0 mi South 9.2 mph - N/A   Overcast
2:35 AM 65.5 °F 55.4 °F 70% 30.05 in 10.0 mi South 9.2 mph - N/A   Overcast
2:55 AM 65.3 °F 55.8 °F 71% 30.05 in 10.0 mi South 11.5 mph 17.3 mph N/A   Overcast
3:15 AM 65.3 °F 56.3 °F 73% 30.05 in 10.0 mi South 9.2 mph - N/A   Overcast
3:35 AM 64.9 °F 56.5 °F 74% 30.05 in 10.0 mi SSE 8.1 mph - N/A   Overcast
3:55 AM 64.9 °F 56.8 °F 75% 30.04 in 10.0 mi South 9.2 mph - N/A   Overcast
4:15 AM 64.9 °F 57.2 °F 76% 30.03 in 10.0 mi South 8.1 mph - N/A   Overcast
4:35 AM 64.9 °F 57.4 °F 76% 30.02 in 10.0 mi South 10.4 mph 16.1 mph N/A   Overcast
4:55 AM 64.6 °F 57.6 °F 78% 30.02 in 10.0 mi South 8.1 mph - N/A   Overcast
5:15 AM 64.4 °F 57.7 °F 79% 30.02 in 10.0 mi SSE 8.1 mph - N/A   Overcast
5:35 AM 64.4 °F 57.7 °F 79% 30.02 in 10.0 mi South 9.2 mph - N/A   Overcast
5:55 AM 64.0 °F 58.1 °F 81% 30.02 in 10.0 mi SSE 8.1 mph - N/A   Overcast
6:15 AM 64.0 °F 58.1 °F 81% 30.02 in 10.0 mi SSE 6.9 mph - N/A   Overcast
6:35 AM 64.0 °F 58.5 °F 82% 30.03 in 10.0 mi South 10.4 mph - N/A   Overcast
6:55 AM 64.0 °F 58.5 °F 82% 30.04 in 10.0 mi SSE 8.1 mph - N/A   Overcast
7:15 AM 64.0 °F 58.5 °F 82% 30.04 in 10.0 mi SSE 6.9 mph - N/A   Overcast
7:35 AM 64.0 °F 59.0 °F 84% 30.05 in 10.0 mi South 8.1 mph - N/A   Overcast
7:55 AM 64.6 °F 59.4 °F 83% 30.05 in 10.0 mi South 10.4 mph - N/A   Overcast
8:55 AM 65.3 °F 59.9 °F 83% 30.05 in 10.0 mi SSE 8.1 mph - N/A   Overcast
9:15 AM 65.7 °F 60.1 °F 82% 30.06 in 10.0 mi South 3.5 mph - N/A   Overcast
9:35 AM 66.9 °F 60.8 °F 81% 30.05 in 10.0 mi South 6.9 mph - N/A   Overcast
9:55 AM 68.4 °F 61.7 °F 79% 30.06 in 10.0 mi South 4.6 mph - N/A   Overcast
10:15 AM 68.2 °F 61.5 °F 79% 30.06 in 10.0 mi South 5.8 mph - N/A   Overcast
10:35 AM 68.5 °F 61.7 °F 79% 30.06 in 10.0 mi SSE 6.9 mph - N/A   Overcast
10:55 AM 68.9 °F 61.7 °F 78% 30.05 in 10.0 mi SE 6.9 mph - N/A   Overcast
11:15 AM 71.2 °F 62.6 °F 74% 30.05 in 10.0 mi SE 9.2 mph - N/A   Overcast
11:35 AM 73.4 °F 63.7 °F 71% 30.04 in 10.0 mi SSE 5.8 mph - N/A   Mostly Cloudy
11:55 AM 73.8 °F 63.5 °F 70% 30.03 in 10.0 mi SE 9.2 mph - N/A   Overcast
12:15 PM 72.0 °F 64.0 °F 76% 30.03 in 10.0 mi SE 3.5 mph - N/A Rain Light Rain
12:35 PM 72.0 °F 64.6 °F 77% 30.02 in 7.0 mi Calm Calm - N/A   Overcast
12:55 PM 72.0 °F 64.0 °F 76% 30.02 in 10.0 mi Calm Calm - N/A   Overcast
1:15 PM 74.1 °F 64.6 °F 72% 30.02 in 10.0 mi SSE 5.8 mph - N/A   Overcast
1:35 PM 73.0 °F 65.5 °F 77% 30.02 in 10.0 mi NNW 5.8 mph - N/A   Overcast
1:55 PM 75.0 °F 64.6 °F 70% 30.02 in 10.0 mi Calm Calm - N/A   Mostly Cloudy
2:15 PM 77.2 °F 64.6 °F 65% 30.01 in 10.0 mi Calm Calm - N/A   Mostly Cloudy
2:35 PM 75.6 °F 64.0 °F 67% 30.02 in 10.0 mi Calm Calm - N/A   Overcast
3:15 PM 73.8 °F 66.9 °F 79% 30.02 in 7.0 mi Calm Calm - N/A Rain Light Rain
3:35 PM 76.6 °F 68.0 °F 75% 30.02 in 10.0 mi East 8.1 mph - N/A   Scattered Clouds
3:55 PM 71.8 °F 66.6 °F 84% 30.02 in 10.0 mi ENE 3.5 mph - N/A   Scattered Clouds
4:15 PM 71.1 °F 65.8 °F 84% 30.02 in 1.5 mi ENE 3.5 mph - N/A Rain Heavy Rain
4:35 PM 71.1 °F 66.4 °F 85% 30.02 in 7.0 mi East 3.5 mph - N/A Rain Light Rain
4:55 PM 74.5 °F 67.6 °F 79% 30.01 in 10.0 mi East 4.6 mph - N/A   Overcast
5:15 PM 73.8 °F 67.5 °F 81% 30.02 in 10.0 mi ENE 3.5 mph - N/A   Mostly Cloudy
5:35 PM 73.2 °F 67.5 °F 82% 30.02 in 10.0 mi NE 3.5 mph - N/A   Mostly Cloudy
5:55 PM 73.8 °F 67.8 °F 82% 30.01 in 10.0 mi NE 3.5 mph - N/A   Scattered Clouds
6:15 PM 73.0 °F 68.2 °F 85% 30.01 in 10.0 mi North 3.5 mph - N/A   Scattered Clouds
6:35 PM 73.4 °F 67.6 °F 82% 30.01 in 10.0 mi Calm Calm - N/A   Mostly Cloudy
6:55 PM 72.3 °F 67.8 °F 86% 30.01 in 10.0 mi Calm Calm - N/A   Overcast
7:15 PM 73.4 °F 67.3 °F 81% 30.02 in 10.0 mi Calm Calm - N/A   Overcast
7:35 PM 72.5 °F 66.9 °F 83% 30.02 in 10.0 mi Calm Calm - N/A   Overcast
7:55 PM 71.8 °F 67.3 °F 86% 30.02 in 10.0 mi ESE 3.5 mph - N/A   Overcast
8:15 PM 71.6 °F 67.1 °F 86% 30.01 in 10.0 mi Calm Calm - N/A   Overcast
8:35 PM 70.7 °F 67.1 °F 88% 30.03 in 7.0 mi Calm Calm - N/A   Overcast
8:55 PM 70.7 °F 66.7 °F 87% 30.03 in 10.0 mi Calm Calm - N/A   Overcast
9:15 PM 70.9 °F 67.1 °F 88% 30.03 in 10.0 mi Calm Calm - N/A   Overcast
9:35 PM 70.3 °F 66.7 °F 88% 30.03 in 7.0 mi Calm Calm - N/A   Overcast
9:55 PM 70.3 °F 67.1 °F 89% 30.03 in 5.0 mi Calm Calm - N/A   Mostly Cloudy
10:15 PM 70.0 °F 66.9 °F 90% 30.02 in 3.0 mi Calm Calm - N/A   Scattered Clouds
10:35 PM 68.9 °F 65.8 °F 90% 30.03 in 0.2 mi Calm Calm - N/A Fog Fog
10:55 PM 69.1 °F 66.2 °F 91% 30.03 in 3.0 mi Calm Calm - N/A   Light Drizzle
11:15 PM 68.9 °F 66.2 °F 91% 30.02 in 7.0 mi Calm Calm - N/A   Scattered Clouds
11:35 PM 68.5 °F 65.7 °F 90% 30.02 in 0.8 mi Calm Calm - N/A   Overcast
11:55 PM 68.9 °F 66.0 °F 90% 30.02 in 7.0 mi Calm Calm - N/A   Scattered Clouds